"TOA5","AWS1","CR1000","7964","CR1000.Std.14","CPU:AWS1_114.CR1","64363","TBL110"
"TIMESTAMP","RECORD","Wind_spd_WVc(1)","Wind_spd_WVc(2)","Air_Temp_Avg","Humidity_Avg","SW_upper_Wm2_Avg","Rain_Tot","Press_Avg","Issui_Tot","Depth_cm","SR50A_Raw","Quality","Ground_Temp_Avg(1)","Ground_Temp_Avg(2)","SW_lower_Wm2_Avg","Albedo_Avg","SWC_per(1)","SWC_per(2)","Period(1)","Period(2)"
"TS","RN","","","","","","","","","","","","","","","","","","",""
"","","WVc","WVc","Avg","Avg","Avg","Tot","Avg","Tot","Smp","Smp","Smp","Avg","Avg","Avg","Avg","Smp","Smp","Smp","Smp"
"2016-02-22 00:00:00",223549,0.552,200.5,-7.024,85.2,0,0,870.2405,0,19.92,3.02,184,0.924,1.428,0.08344699,0,52.94,61.58,34.02,36.04
"2016-02-22 00:10:00",223550,0.328,214.8,-7.044,84.8,0,0,870.0898,0,20.18,3.018,186,0.906,1.404,0.1327592,0,52.94,61.52,34.02,36.02
"2016-02-22 00:20:00",223551,0.543,193.9,-7.262,85.3,0,0,869.6253,0,20.06,3.021,179,0.888,1.396,0.07586233,0,52.88,61.52,34,36.02
"2016-02-22 00:30:00",223552,0.436,241.5,-7.284,86,0,0,869.8662,0,20.28,3.018,173,0.888,1.4,0.1555198,0,52.94,61.52,34.02,36.02
"2016-02-22 00:40:00",223553,0.362,307.1,-7.242,85.1,0,0,869.6955,0,20.2,3.02,169,0.89,1.401,0.1706941,0,52.94,61.52,34.02,36.02
"2016-02-22 00:50:00",223554,0.743,173.3,-7.5,86.9,0,0,869.8142,0,19.66,3.025,174,0.89,1.405,0.147938,0,52.94,61.52,34.02,36.02
"2016-02-22 01:00:00",223555,0.298,247.9,-7.536,88.1,0,0,870.1765,0,20.15,3.021,174,0.902,1.407,0.06069296,0,52.94,61.52,34.02,36.02
"2016-02-22 01:10:00",223556,0.329,251.1,-7.638,89.8,0,0,870.399,0,20.2,3.02,178,0.919,1.408,0.06069348,0,52.88,61.52,34,36.02
"2016-02-22 01:20:00",223557,0.57,176,-7.7,88.6,0,0,870.3217,0,20.51,3.018,178,0.942,1.415,0.1365612,0,52.94,61.52,34.02,36.02
"2016-02-22 01:30:00",223558,0.304,182.9,-7.723,87.2,0,0,870.4885,0,20.04,3.024,187,0.961,1.424,0.1479428,0,52.88,61.52,34,36.02
"2016-02-22 01:40:00",223559,0.475,189.2,-7.923,87.7,0,0,870.3431,0,20.29,3.021,170,0.978,1.443,0.1100093,0,52.88,61.52,34,36.02
"2016-02-22 01:50:00",223560,0.543,196,-7.796,86.3,0,0,870.1174,0,20.27,3.02,183,0.979,1.431,0.3072675,0,52.94,61.52,34.02,36.02
"2016-02-22 02:00:00",223561,0.46,190.2,-7.775,86,0,0,869.9593,0,20.36,3.02,169,0.977,1.423,0.2693333,0,52.88,61.52,34,36.02
"2016-02-22 02:10:00",223562,0.357,204.9,-7.783,86.9,0,0,869.9825,0,20.17,3.022,170,0.976,1.427,0.2124319,0,52.88,61.52,34,36.02
"2016-02-22 02:20:00",223563,0.462,193.5,-7.925,87.8,0,0,870.0226,0,20.53,3.019,170,0.975,1.446,0.1100094,0,52.88,61.52,34,36.02
"2016-02-22 02:30:00",223564,1.292,278.7,-7.538,86.3,0,0,870.069,0,19.9,3.022,186,0.968,1.418,0.337615,0,52.88,61.52,34,36.02
"2016-02-22 02:40:00",223565,0.888,309.9,-7.447,85.4,0,0,870.0078,0,20.29,3.019,182,0.959,1.416,0.01896713,0,52.88,61.46,34,36.01
"2016-02-22 02:50:00",223566,0.336,256.5,-7.589,87,0,0,870.2081,0,20.04,3.022,180,0.976,1.424,0,0,52.83,61.46,33.99,36.01
"2016-02-22 03:00:00",223567,0.075,201.5,-7.829,88.5,0,0,870.3157,0,19.74,3.027,178,0.982,1.454,0,0,52.88,61.46,34,36.01
"2016-02-22 03:10:00",223568,0.009,272.3,-8.03,89.6,0,0,870.282,0,20.09,3.025,186,0.982,1.46,0,0,52.88,61.46,34,36.01
"2016-02-22 03:20:00",223569,0.115,275.8,-8.09,91.1,0,0,870.3937,0,20.14,3.023,191,0.982,1.449,0.1100094,0,52.88,61.46,34,36.01
"2016-02-22 03:30:00",223570,0.218,168.5,-7.97,90.9,0,0,870.4548,0,19.99,3.025,178,0.982,1.466,0.2769202,0,52.88,61.46,34,36.01
"2016-02-22 03:40:00",223571,0.08,170.5,-8.11,91.2,0,0,870.6277,0,20.11,3.024,178,0.982,1.468,0.1365634,0,52.88,61.46,34,36.01
"2016-02-22 03:50:00",223572,0.081,185.1,-8.08,91.5,0,0,870.7289,0,19.94,3.026,174,0.982,1.454,0.2276056,0,52.88,61.46,34,36.01
"2016-02-22 04:00:00",223573,0.291,355.2,-8.1,91.1,0,0,870.963,0,19.87,3.025,186,0.982,1.448,0.3262347,0,52.83,61.46,33.99,36.01
"2016-02-22 04:10:00",223574,0.268,284.2,-7.814,88.9,0,0,871.1317,0,19.99,3.023,182,0.982,1.466,0.3983098,0,52.88,61.46,34,36.01
"2016-02-22 04:20:00",223575,0.345,289.5,-7.695,87.8,0,0,871.2792,0,19.9,3.024,177,0.982,1.458,0.2693333,0,52.83,61.46,33.99,36.01
"2016-02-22 04:30:00",223576,0.219,166.4,-7.981,88,0,0,871.4521,0,20.16,3.025,173,0.982,1.467,0.09483567,0,52.83,61.46,33.99,36.01
"2016-02-22 04:40:00",223577,0.439,163.1,-8.14,90.5,0,0,871.5617,0,20.38,3.021,178,0.982,1.463,0.231399,0,52.83,61.46,33.99,36.01
"2016-02-22 04:50:00",223578,0.486,175.7,-7.99,89.5,0,0,871.7431,0,20.34,3.021,187,0.982,1.459,0.2276056,0,52.83,61.46,33.99,36.01
"2016-02-22 05:00:00",223579,0.257,223.7,-7.903,89.5,0,0,872.093,0,20.29,3.021,186,0.982,1.456,0.2503662,0,52.88,61.46,34,36.01
"2016-02-22 05:10:00",223580,0.43,252.6,-7.713,89.8,0,0,872.2575,0,20.34,3.019,186,0.982,1.424,0.6107417,0,52.83,61.4,33.99,36
"2016-02-22 05:20:00",223581,0.347,255.9,-7.545,88,0,0,872.5886,0,20.29,3.019,181,0.977,1.415,0.4324507,0,52.83,61.4,33.99,36
"2016-02-22 05:30:00",223582,0.524,242.6,-7.507,87.4,0,0,872.7003,0,20.34,3.018,187,0.947,1.415,0.2503662,0,52.83,61.4,33.99,36
"2016-02-22 05:40:00",223583,0.641,145.3,-7.472,88,0,0,872.7192,0,20.29,3.019,190,0.922,1.413,0.2541596,0,52.83,61.4,33.99,36
"2016-02-22 05:50:00",223584,0.852,167.1,-7.494,87.8,0,0,872.7424,0,20.29,3.019,190,0.91,1.413,0.2276056,0,52.83,61.46,33.99,36.01
"2016-02-22 06:00:00",223585,0.632,193.2,-7.527,89.4,0,0,872.9723,0,20.24,3.019,186,0.904,1.416,0.1517371,0,52.83,61.4,33.99,36
"2016-02-22 06:10:00",223586,0.36,170.3,-7.484,89,0,0,872.9954,0,20.29,3.019,182,0.905,1.418,0.1782911,0,52.83,61.4,33.99,36
"2016-02-22 06:20:00",223587,0.67,168.3,-7.536,88.9,0,0,872.8942,0,20.19,3.02,181,0.912,1.417,0.2162253,0,52.83,61.4,33.99,36
"2016-02-22 06:30:00",223588,0.668,161.8,-7.553,89.3,0,0,872.9638,0,20.14,3.021,182,0.905,1.414,0.6979905,0,52.83,61.4,33.99,36
"2016-02-22 06:40:00",223589,1.249,172.5,-7.724,91.5,3.395313,0,872.9997,0,20.29,3.02,178,0.903,1.416,3.391324,1.444,52.83,61.4,33.99,36
"2016-02-22 06:50:00",223590,1.078,183,-7.493,87.5,15.2376,0,872.8668,0,20.39,3.016,174,0.914,1.418,10.89093,0.726,52.77,61.4,33.98,36
"2016-02-22 07:00:00",223591,0.586,169.8,-7.038,81.6,27.68183,0,872.7424,0,20.35,3.015,182,0.935,1.421,18.56124,0.672,52.83,61.4,33.99,36
"2016-02-22 07:10:00",223592,1.134,180.9,-6.806,79.56,42.5614,0,872.6434,0,20.4,3.013,181,0.933,1.423,27.38854,0.644,52.77,61.46,33.98,36.01
"2016-02-22 07:20:00",223593,0.771,172.4,-6.562,78.1,62.36674,0,872.5253,0,20.26,3.012,182,0.915,1.418,40.75279,0.649,52.77,61.4,33.98,36
"2016-02-22 07:30:00",223594,0.517,197.2,-5.953,75.21,93.36913,0,872.4894,0,20.19,3.011,182,1.002,1.476,63.69923,0.684,52.77,61.4,33.98,36
"2016-02-22 07:40:00",223595,0.289,152.2,-5.561,71.79,124.8318,0,872.4768,0,20.23,3.007,178,1.03,1.424,70.12149,0.565,52.77,61.34,33.98,35.98
"2016-02-22 07:50:00",223596,0.184,199.3,-5.147,69.25,119.5202,0,872.4852,0,19.94,3.008,186,1.012,1.416,63.20974,0.53,52.77,61.4,33.98,36
"2016-02-22 08:00:00",223597,0.244,9.68,-5.015,68.68,104.879,0,872.3334,0,20.04,3.007,178,0.979,1.417,60.40161,0.577,52.77,61.4,33.98,36
"2016-02-22 08:10:00",223598,0.211,355.5,-4.968,69.97,114.6345,0,872.4432,0,20.05,3.007,186,0.967,1.437,66.05443,0.576,52.77,61.34,33.98,35.98
"2016-02-22 08:20:00",223599,0.175,344.3,-4.909,71.68,130.9502,0,872.3386,0,20.24,3.004,186,0.939,1.443,77.09155,0.587,52.77,61.34,33.98,35.98
"2016-02-22 08:30:00",223600,0.275,179.8,-4.392,68.14,134.2809,0,872.1576,0,19.86,3.006,178,0.892,1.467,79.80338,0.594,52.77,61.34,33.98,35.98
"2016-02-22 08:40:00",223601,0.469,302.3,-4.561,71.99,157.9478,0,872.1714,0,19.57,3.009,178,0.943,1.439,92.46567,0.585,52.77,61.34,33.98,35.98
"2016-02-22 08:50:00",223602,0.647,0.306,-4.74,77.56,179.6319,0,872.3603,0,20.36,3.003,178,0.971,1.417,114.6863,0.638,52.77,61.34,33.98,35.98
"2016-02-22 09:00:00",223603,0.302,341.8,-4.604,77.2,168.7523,0,872.5435,0,20.36,3.002,186,0.952,1.429,105.1788,0.623,52.77,61.34,33.98,35.98
"2016-02-22 09:10:00",223604,0.615,350.7,-4.664,76.61,195.1699,0,872.4529,0,20.02,3.005,174,0.942,1.452,124.2379,0.638,52.72,61.4,33.96,36
"2016-02-22 09:20:00",223605,0.618,5.928,-4.384,75.59,228.2885,0,872.7332,0,20.22,3.001,179,0.939,1.462,137.8967,0.605,52.72,61.34,33.96,35.98
"2016-02-22 09:30:00",223606,0.652,37.57,-4.104,74.89,241.2595,0,872.6569,0,20.02,3.001,174,0.935,1.431,142.3773,0.59,52.77,61.4,33.98,36
"2016-02-22 09:40:00",223607,0.358,195.3,-3.584,68.67,234.3654,0,872.337,0,19.93,2.998,177,0.967,1.381,133.8472,0.571,52.72,61.4,33.96,36
"2016-02-22 09:50:00",223608,0.309,138.7,-3.277,71.25,228.2716,0,872.0723,0,20.33,2.996,179,0.916,1.406,128.9626,0.565,52.77,61.34,33.98,35.98
"2016-02-22 10:00:00",223609,0.269,32.68,-3.137,69.34,241.4514,0,872.1036,0,20.1,2.996,179,0.939,1.38,136.83,0.567,52.77,61.4,33.98,36
"2016-02-22 10:10:00",223610,0.375,56.21,-3.201,71.23,264.2312,0,872.0498,0,20.45,2.991,188,0.964,1.372,151.1192,0.572,52.77,61.4,33.98,36
"2016-02-22 10:20:00",223611,0.242,60.96,-2.508,70.14,287.6936,0,871.9104,0,20.5,2.987,182,0.938,1.37,163.8745,0.57,52.77,61.34,33.98,35.98
"2016-02-22 10:30:00",223612,0.384,16.49,-2.267,69.11,285.4796,0,871.8113,0,20.29,2.991,186,0.937,1.409,161.6831,0.566,52.72,61.34,33.96,35.98
"2016-02-22 10:40:00",223613,0.453,20.14,-2.327,70.21,292.4375,0,871.9329,0,20.42,2.988,181,0.928,1.42,168.5325,0.576,52.72,61.34,33.96,35.98
"2016-02-22 10:50:00",223614,0.387,345.1,-2.351,70.36,281.1485,0,872.0096,0,20.41,2.988,182,0.909,1.392,163.6665,0.582,52.72,61.34,33.96,35.98
"2016-02-22 11:00:00",223615,0.3,52.82,-1.813,69.81,275.0975,0,871.9664,0,19.97,2.989,187,0.921,1.338,171.3085,0.623,52.77,61.34,33.98,35.98
"2016-02-22 11:10:00",223616,0.252,1.528,-1.612,67.91,324.0582,0,871.7928,0,21,2.976,173,0.878,1.307,203.8696,0.629,52.72,61.34,33.96,35.98
"2016-02-22 11:20:00",223617,0.326,334.9,-1.05,67.21,331.7905,0,871.8499,0,20.42,2.983,190,0.859,1.355,189.4686,0.571,52.72,61.34,33.96,35.98
"2016-02-22 11:30:00",223618,0.474,19,-1.133,67.36,319.473,0,871.7711,0,20.55,2.982,189,0.852,1.368,179.8841,0.563,52.72,61.34,33.96,35.98
"2016-02-22 11:40:00",223619,0.459,319.8,-1.076,68.06,313.7401,0,871.9119,0,20.21,2.983,186,0.852,1.357,186.8176,0.595,52.77,61.34,33.98,35.98
"2016-02-22 11:50:00",223620,0.316,18.49,-0.905,67.02,385.3492,0,871.9098,0,20.36,2.981,189,0.857,1.334,220.9457,0.573,52.77,61.34,33.98,35.98
"2016-02-22 12:00:00",223621,0.506,44.66,-0.649,64.99,522.7792,0,871.7265,0,20.4,2.978,190,0.888,1.312,256.4688,0.493,52.72,61.34,33.96,35.98
"2016-02-22 12:10:00",223622,0.317,333,-0.01,62.58,543.9596,0,871.6992,0,20.31,2.974,185,0.896,1.357,258.2916,0.474,52.77,61.34,33.98,35.98
"2016-02-22 12:20:00",223623,0.398,335.1,0.189,60.46,558.3808,0,871.6212,0,19.95,2.981,180,0.91,1.365,274.0072,0.49,52.72,61.34,33.96,35.98
"2016-02-22 12:30:00",223624,0.583,25.98,0.131,60.99,577.9377,0,871.4335,0,20.63,2.972,185,0.906,1.338,292.0382,0.505,52.72,61.34,33.96,35.98
"2016-02-22 12:40:00",223625,0.212,15.38,0.714,58.31,424.9976,0,871.38,0,20.41,2.972,180,0.861,1.305,216.4484,0.509,52.72,61.34,33.96,35.98
"2016-02-22 12:50:00",223626,0.33,27.23,0.766,56.96,288.7245,0,871.3398,0,20.45,2.974,177,0.821,1.288,148.8227,0.515,52.72,61.34,33.96,35.98
"2016-02-22 13:00:00",223627,0.325,292.4,0.447,59.29,293.1535,0,871.3209,0,20.52,2.971,168,0.833,1.282,154.0963,0.526,52.66,61.28,33.95,35.97
"2016-02-22 13:10:00",223628,0.317,131.9,0.843,57.86,301.8658,0,871.1766,0,20.33,2.971,176,0.83,1.28,157.7509,0.522,52.66,61.28,33.95,35.97
"2016-02-22 13:20:00",223629,0.393,119.6,0.989,56.23,275.3093,0,871.3448,0,20.43,2.97,177,0.838,1.279,142.8058,0.519,52.72,61.28,33.96,35.97
"2016-02-22 13:30:00",223630,0.227,14.07,0.951,56.25,276.9571,0,871.3489,0,20.3,2.972,176,0.839,1.277,142.8577,0.516,52.72,61.28,33.96,35.97
"2016-02-22 13:40:00",223631,0.338,46.55,0.922,56.26,309.8016,0,871.3574,0,20.62,2.969,168,0.839,1.276,157.9001,0.51,52.66,61.28,33.95,35.97
"2016-02-22 13:50:00",223632,0.366,127.2,0.968,56.65,304.7155,0,871.3532,0,20.53,2.969,185,0.841,1.278,151.586,0.498,52.66,61.28,33.95,35.97
"2016-02-22 14:00:00",223633,0.223,331.7,0.949,58.87,292.2068,0,871.3574,0,20.4,2.971,169,0.842,1.279,140.9643,0.483,52.66,61.28,33.95,35.97
"2016-02-22 14:10:00",223634,0.504,349.7,0.827,58.97,272.5114,0,871.3595,0,20.57,2.97,168,0.847,1.279,129.5202,0.476,52.66,61.28,33.95,35.97
"2016-02-22 14:20:00",223635,0.271,62.93,1.01,60.03,249.759,0,871.3553,0,20.68,2.968,176,0.847,1.279,119.9549,0.481,52.72,61.28,33.96,35.97
"2016-02-22 14:30:00",223636,0.431,322.9,0.79,61.07,222.2485,0,871.3574,0,20.72,2.968,177,0.847,1.279,112.2344,0.505,52.66,61.28,33.95,35.97
"2016-02-22 14:40:00",223637,0.329,49.41,1.056,60.4,225.9417,0,871.3469,0,20.73,2.967,172,0.847,1.279,114.6135,0.507,52.72,61.28,33.96,35.97
"2016-02-22 14:50:00",223638,0.319,192.7,1.108,58.64,196.121,0,871.21,0,20.58,2.968,169,0.847,1.279,98.28611,0.501,52.72,61.28,33.96,35.97
"2016-02-22 15:00:00",223639,0.652,131.5,1.227,57.96,168.4338,0,871.2374,0,20.53,2.969,168,0.842,1.279,85.33788,0.507,52.66,61.28,33.95,35.97
"2016-02-22 15:10:00",223640,0.65,142.7,1.07,59.17,159.7154,0,871.1574,0,20.48,2.97,172,0.777,1.279,82.51563,0.517,52.66,61.28,33.95,35.97
"2016-02-22 15:20:00",223641,0.83,141.9,0.839,59.85,146.0074,0,871.3237,0,20.62,2.97,169,0.823,1.292,76.60975,0.525,52.66,61.28,33.95,35.97
"2016-02-22 15:30:00",223642,0.39,120,0.802,59.87,104.4745,0,871.3591,0,20.67,2.969,168,0.814,1.283,55.39556,0.53,52.66,61.22,33.95,35.96
"2016-02-22 15:40:00",223643,0.113,75.5,1.04,60.23,99.18224,0,871.3513,0,20.68,2.968,168,0.771,1.258,52.38012,0.528,52.72,61.22,33.96,35.96
"2016-02-22 15:50:00",223644,0.041,358.2,0.843,64.48,79.12498,0,871.3659,0,20.62,2.969,168,0.762,1.278,41.44344,0.524,52.66,61.22,33.95,35.96
"2016-02-22 16:00:00",223645,0.073,300.9,0.645,66.29,78.55921,0,871.4089,0,20.66,2.97,172,0.762,1.27,41.06841,0.523,52.66,61.22,33.95,35.96
"2016-02-22 16:10:00",223646,0.052,320.6,0.615,66.03,58.60437,0,871.4584,0,20.61,2.971,177,0.762,1.246,30.23793,0.515,52.66,61.22,33.95,35.96
"2016-02-22 16:20:00",223647,0.044,279.1,0.479,68.33,55.09653,0,871.6969,0,20.73,2.971,172,0.786,1.229,28.52804,0.518,52.6,61.22,33.94,35.96
"2016-02-22 16:30:00",223648,0.058,312,0.393,71.05,61.02393,0,871.7128,0,20.63,2.971,168,0.844,1.241,31.64535,0.519,52.66,61.22,33.95,35.96
"2016-02-22 16:40:00",223649,0.288,41.8,0.437,70.53,49.96989,0,871.7304,0,20.56,2.972,169,0.873,1.266,25.62679,0.513,52.66,61.22,33.95,35.96
"2016-02-22 16:50:00",223650,0.088,80.4,0.381,69.47,36.51138,0,871.798,0,20.56,2.972,169,0.897,1.31,18.74637,0.513,52.6,61.22,33.94,35.96
"2016-02-22 17:00:00",223651,0.345,145.1,0.251,69.08,33.85912,0,871.7032,0,20.65,2.972,180,0.909,1.327,17.25364,0.51,52.66,61.22,33.95,35.96
"2016-02-22 17:10:00",223652,0.078,23.91,0.248,70.77,18.27577,0,871.9012,0,20.57,2.973,189,0.899,1.356,9.504147,0.521,52.6,61.22,33.94,35.96
"2016-02-22 17:20:00",223653,0.02,348.5,0.023,72.65,7.715143,0,871.9561,0,20.64,2.974,168,0.856,1.336,4.399655,0.572,52.66,61.22,33.95,35.96
"2016-02-22 17:30:00",223654,0.097,6.463,-0.166,72.19,4.401917,0,871.9561,0,20.53,2.976,185,0.85,1.332,2.698153,0.62,52.66,61.22,33.95,35.96
"2016-02-22 17:40:00",223655,0.038,19.13,-0.309,73.99,0.707451,0,871.9581,0,20.63,2.976,181,0.849,1.296,0.693486,0.602,52.66,61.22,33.95,35.96
"2016-02-22 17:50:00",223656,0.086,296.5,-0.465,73.52,0,0,871.9561,0,20.62,2.977,176,0.865,1.28,0,0,52.66,61.22,33.95,35.96
"2016-02-22 18:00:00",223657,0.135,284.5,-0.641,74.93,0,0,871.9561,0,20.67,2.977,168,0.889,1.281,0,0,52.66,61.22,33.95,35.96
"2016-02-22 18:10:00",223658,0,0,-0.662,77.44,0,0,871.9561,0,20.55,2.978,168,0.882,1.293,0,0,52.66,61.22,33.95,35.96
"2016-02-22 18:20:00",223659,0,0,-0.701,76.94,0,0,871.9834,0,20.61,2.978,168,0.858,1.319,0,0,52.6,61.16,33.94,35.94
"2016-02-22 18:30:00",223660,0,0,-0.77,76.83,0,0,872.2214,0,20.62,2.978,168,0.861,1.339,0,0,52.6,61.16,33.94,35.94
"2016-02-22 18:40:00",223661,0,0,-0.719,77.39,0,0,872.2649,0,20.59,2.978,168,0.888,1.358,0.1667651,0,52.6,61.16,33.94,35.94
"2016-02-22 18:50:00",223662,0.018,108.2,-0.726,78.05,0,0,872.3531,0,20.58,2.978,185,0.909,1.342,0.2274266,0,52.66,61.16,33.95,35.94
"2016-02-22 19:00:00",223663,0.02,89.7,-0.772,77.88,0,0,872.4354,0,20.62,2.978,170,0.925,1.357,0.1250913,0,52.6,61.16,33.94,35.94
"2016-02-22 19:10:00",223664,0.008,32.44,-0.753,77.1,0,0,872.5367,0,20.56,2.979,168,0.933,1.36,0.159213,0,52.6,61.16,33.94,35.94
"2016-02-22 19:20:00",223665,0.035,66.57,-0.836,78.15,0,0,872.4046,0,20.54,2.979,168,0.935,1.367,0.08718868,0,52.66,61.16,33.95,35.94
"2016-02-22 19:30:00",223666,0.033,107.2,-0.865,79.39,0,0,872.302,0,20.63,2.979,168,0.936,1.374,0.1971233,0,52.6,61.16,33.94,35.94
"2016-02-22 19:40:00",223667,0.012,115.1,-0.908,80.3,0,0,872.2011,0,20.46,2.98,169,0.936,1.372,0.2274501,0,52.6,61.16,33.94,35.94
"2016-02-22 19:50:00",223668,0.054,89.5,-0.992,79.71,0,0,872.0599,0,20.53,2.98,168,0.935,1.366,0.2274502,0,52.6,61.16,33.94,35.94
"2016-02-22 20:00:00",223669,0.005,146.8,-0.972,80.4,0,0,872.0494,0,20.56,2.979,168,0.929,1.368,0.2236593,0,52.6,61.16,33.94,35.94
"2016-02-22 20:10:00",223670,0.005,188.6,-0.941,80.2,0,0,872.0536,0,20.51,2.98,168,0.926,1.369,0.1213068,0,52.6,61.16,33.94,3
"2016-02-22 20:10:00",223670,0.005,188.6,-0.941,80.2,0,0,872.0536,0,20.51,2.98,168,0.926,1.369,0.1213068,0,52.6,61.16,33.94,35.94
"2016-02-22 20:20:00",223671,0,0,-1.018,80.1,0,0,872.2306,0,20.66,2.979,168,0.935,1.369,0.03790836,0,52.6,61.16,33.94,35.94
"2016-02-22 20:30:00",223672,0,0,-0.946,79.79,0,0,872.3022,0,20.66,2.979,170,0.931,1.369,0.1705876,0,52.6,61.16,33.94,35.94
"2016-02-22 20:40:00",223673,0,0,-0.996,80.3,0,0,872.3022,0,20.56,2.98,168,0.925,1.369,0.1667968,0,52.6,61.16,33.94,35.94
"2016-02-22 20:50:00",223674,0,0,-1.03,81.1,0,0,872.3001,0,20.56,2.98,169,0.928,1.369,0.2198685,0,52.6,61.16,33.94,35.94
"2016-02-22 21:00:00",223675,0,0,-1,80.8,0,0,872.2853,0,20.56,2.98,169,0.922,1.369,0.2274502,0,52.6,61.16,33.94,35.94
"2016-02-22 21:10:00",223676,0,0,-1.084,84,0,0,872.0494,0,20.6,2.98,169,0.923,1.369,0.163006,0,52.6,61.16,33.94,35.94
"2016-02-22 21:20:00",223677,0,0,-1.105,82.8,0,0,872.0094,0,20.56,2.98,168,0.898,1.369,0.1933327,0,52.55,61.16,33.92,35.94
"2016-02-22 21:30:00",223678,0.045,131.6,-1.064,81.9,0,0,872.0325,0,20.63,2.98,168,0.885,1.37,0.2274502,0,52.6,61.1,33.94,35.93
"2016-02-22 21:40:00",223679,0.146,93.3,-1.194,83.8,0,0,871.8976,0,20.7,2.98,169,0.884,1.369,0.2274502,0,52.6,61.1,33.94,35.93
"2016-02-22 21:50:00",223680,0.004,89.1,-1.241,86.1,0,0,871.7966,0,20.65,2.98,168,0.892,1.369,0.1781693,0,52.6,61.1,33.94,35.93
"2016-02-22 22:00:00",223681,0.391,169,-1.047,81.7,0,0,871.7966,0,20.69,2.978,168,0.904,1.369,0.276731,0,52.6,61.1,33.94,35.93
"2016-02-22 22:10:00",223682,0.295,134.1,-0.887,81.1,0,0,871.7966,0,20.73,2.978,168,0.911,1.369,0.2426135,0,52.6,61.1,33.94,35.93
"2016-02-22 22:20:00",223683,0.318,132.3,-0.941,82.2,0,0,871.7966,0,20.59,2.979,168,0.914,1.369,0.2160777,0,52.55,61.1,33.92,35.93
"2016-02-22 22:30:00",223684,0.351,123.2,-0.951,81.9,0,0,871.649,0,20.73,2.978,168,0.892,1.369,0.06823505,0,52.55,61.1,33.92,35.93
"2016-02-22 22:40:00",223685,0.157,139.5,-0.959,82.1,0,0,871.5437,0,20.56,2.979,169,0.885,1.369,0.0416992,0,52.6,61.1,33.94,35.93
"2016-02-22 22:50:00",223686,0.115,25.15,-0.93,82.5,0,0,871.7396,0,20.59,2.979,168,0.919,1.369,0.1250976,0,52.55,61.1,33.92,35.93
"2016-02-22 23:00:00",223687,0.189,112.4,-0.888,83.2,0,0,871.6553,0,20.59,2.979,168,0.915,1.369,0.1326793,0,52.55,61.1,33.92,35.93
"2016-02-22 23:10:00",223688,0.086,109,-0.883,83.6,0,0,871.5753,0,20.56,2.979,169,0.919,1.369,0.06065338,0,52.55,61.1,33.92,35.93
"2016-02-22 23:20:00",223689,0.044,157.8,-0.903,84.6,0,0,871.5437,0,20.56,2.979,168,0.908,1.369,0,0,52.55,61.1,33.92,35.93
"2016-02-22 23:30:00",223690,0.357,161,-0.996,84.6,0,0,871.5437,0,20.68,2.979,168,0.923,1.369,0,0,52.55,61.1,33.92,35.93
"2016-02-22 23:40:00",223691,0.233,170.7,-1.047,85.3,0,0,871.5437,0,20.68,2.979,168,0.925,1.369,0,0,52.55,61.16,33.92,35.94
"2016-02-22 23:50:00",223692,0.235,162,-1.054,85.1,0,0,871.5437,0,20.66,2.979,168,0.916,1.369,0,0,52.55,61.1,33.92,35.93
